Location: Central Falls
(41.8900°N, 71.3929°W)
Time: 03:59:09
(UTC+00:00)

Vanguard 2 - Pass Details

Date: 04 December 2023
Orbit: 554 x 2918 km, 32.9° (Epoch: 01 March)

Event Time Altitude Azimuth Distance (km) Brightness Sun altitude
Rises 23:24:10 0° 203° (SSW) 6,552 12.7 -23.4°
Reaches altitude 10° 23:29:36 10° 192° (SSW) 5,685 12.2 -24.4°
Maximum altitude 23:42:32 26° 144° (SE) 4,449 11.1 -26.8°
Enters shadow 23:46:46 23° 124° (SE) 4,488 11.0 -27.6°
Drops below altitude 10° 23:54:15 10° 97° (E) 5,166 - -29.0°
Sets 23:58:46 0° 85° (E) 5,873 - -29.8°
